#timestamp,LO_Frequency,Hit,StdDev 
1588039215.3,286046999.6,N
1588039235.1,286046997.2,N
1588039255.8,286046995.5,N
1588039275.7,286046996.0,N
1588039295.5,286046999.0,N
1588039315.4,286046998.3,N
1588039335.2,286047002.6,N
1588039355.0,286047001.8,N
1588039355.9,286047001.8,N
1588039375.8,286047002.8,N
1588039395.6,286046999.4,N
1588039415.4,286046997.3,N
1588039435.3,286046999.2,N
1588039455.1,286046999.5,N
1588039475.9,286046996.9,N
1588039495.7,286046998.7,N
1588039515.5,286046999.5,N
1588039535.4,286046997.3,N
1588039555.2,286046995.3,N
1588039575.0,286046997.7,N
1588039576.0,286046997.7,N
1588039595.8,286046999.5,N
1588039615.6,286046999.3,N
1588039635.5,286046997.3,N
1588039655.3,286046996.7,N
1588039675.1,286046999.6,N
1588039695.9,286046998.0,N
1588039715.7,286046999.0,N
1588039735.6,286047000.9,N
1588039755.4,286046996.9,N
1588039775.2,286046998.3,N
1588039795.1,286046998.7,N
1588039796.0,286046998.7,N
1588039815.8,286046999.5,N
1588039835.7,286047000.0,N
1588039855.5,286047002.6,N
1588039875.3,286047000.4,N
1588039895.2,286047000.9,N
1588039915.0,286047001.2,N
1588039915.9,286047001.2,N
1588039935.8,286046996.6,N
1588039955.6,286046996.8,N
1588039975.4,286047001.2,N
1588039995.3,286047002.6,N
1588040015.1,286047001.6,N
1588040035.8,286047002.5,N
1588040055.7,286047002.7,N
1588040075.5,286047003.1,N
1588040095.4,286047003.1,N
1588040115.2,286047001.9,N
1588040135.0,286047002.3,N
1588040135.9,286047002.3,N
1588040155.8,286047004.0,N
1588040175.6,286047005.7,N
1588040195.5,286047002.1,N
1588040215.3,286047002.2,N
1588040235.1,286047002.7,N
1588040255.9,286047001.4,N
1588040275.7,286047000.0,N
1588040295.5,286047002.2,N
1588040315.4,286047001.2,N
1588040335.2,286047000.9,N
1588040355.1,286046999.4,N
1588040356.0,286046999.4,N
1588040375.8,286047002.7,N
1588040395.6,286047002.7,N
1588040415.5,286047000.5,N
1588040435.3,286047002.4,N
1588040455.1,286047000.1,N
1588040475.9,286047001.8,N
1588040495.7,286047002.8,N
1588040515.6,286047002.7,N
1588040535.4,286046999.7,N
1588040555.2,286047000.3,N
1588040575.1,286046998.3,N
1588040576.0,286046998.3,N
1588040595.8,286047000.4,N
1588040615.7,286047000.2,N
1588040635.5,286047000.2,N
1588040655.3,286047002.1,N
1588040675.2,286047000.4,N
1588040695.0,286047002.7,N
1588040695.9,286047002.7,N
1588040715.8,286047002.3,N
1588040735.6,286047002.8,N
1588040755.4,286047001.9,N
1588040775.3,286047003.2,N
1588040795.1,286047003.3,N
1588040815.9,286047005.2,Y
1588040835.7,286047002.2,P
1588040855.5,286047002.5,P
1588040875.4,286047002.8,P
1588040895.2,286046997.0,Y
1588040915.0,286046999.2,P
1588040915.9,286046999.2,N
1588040935.8,286046998.3,N
1588040955.6,286046998.6,N
1588040975.5,286047001.2,N
1588040995.3,286047001.0,N
1588041015.1,286046999.1,N
1588041035.9,286046997.0,N
1588041055.7,286046996.6,N
1588041075.6,286046997.9,N
1588041095.4,286046996.7,N
1588041115.2,286046993.4,Y
1588041135.1,286046996.0,P
1588041136.0,286046996.0,N
1588041155.8,286046999.6,N
1588041175.6,286046999.0,N
1588041195.5,286047000.6,N
1588041215.3,286046999.0,N
1588041235.2,286046999.0,N
1588041255.9,286046996.5,N
1588041275.7,286047000.7,N
1588041295.6,286046998.9,N
1588041315.4,286046996.8,N
1588041335.3,286046996.9,N
1588041355.1,286046996.9,N
1588041356.0,286046996.9,N
1588041375.8,286047000.6,N
1588041395.7,286046999.8,N
1588041415.5,286047000.1,N
1588041435.3,286046998.5,N
1588041455.2,286047000.3,N
1588041475.0,286047002.3,N
1588041475.9,286047002.3,N
1588041495.8,286046998.2,N
1588041515.6,286046996.9,N
1588041535.4,286047001.2,N
1588041555.3,286046998.5,N
1588041575.1,286046999.6,N
1588041595.9,286046996.7,N
1588041615.7,286046996.6,N
1588041635.5,286046998.0,N
1588041655.4,286046997.6,N
1588041675.2,286046996.7,N
1588041695.0,286046999.4,N
1588041695.9,286046999.4,N
1588041715.8,286046996.5,N
1588041735.6,286046999.0,N
1588041755.5,286046999.6,N
1588041775.3,286046999.5,N
1588041795.1,286046998.5,N
1588041815.9,286047002.8,N
1588041835.7,286047001.7,N
1588041855.6,286047005.8,Y
1588041875.4,286047003.1,P
1588041895.2,286047002.3,N
1588041915.1,286047003.1,N
1588041916.0,286047003.1,N
1588041935.8,286047002.0,N
1588041955.6,286046998.1,N
1588041975.5,286046997.1,N
1588041995.3,286046997.3,N
1588042015.2,286046999.6,N
1588042035.9,286047001.0,N
1588042055.7,286047002.3,N
1588042075.6,286046998.5,N
1588042095.4,286047002.5,N
1588042115.3,286047000.2,N
1588042135.1,286046999.0,N
1588042136.0,286046999.0,N
1588042155.8,286046997.0,N
1588042175.7,286046997.7,N
1588042195.5,286046996.9,N
1588042215.4,286046997.2,N
1588042235.2,286046998.0,N
1588042255.0,286046995.6,N
1588042255.9,286046995.6,N
1588042275.8,286046996.4,N
1588042295.6,286046993.3,N
1588042315.4,286046995.9,N
1588042335.3,286046993.3,N
1588042355.1,286046997.4,N
1588042375.9,286046996.8,N
1588042395.7,286046995.0,N
1588042415.5,286046995.1,N
1588042435.4,286046997.0,N
1588042455.2,286046997.8,N
1588042475.1,286046997.8,N
1588042476.0,286046997.8,N
1588042495.8,286046996.1,N
1588042515.6,286046996.2,N
1588042535.5,286046996.1,N
1588042555.3,286046996.4,N
1588042575.2,286046994.6,N
1588042595.9,286046990.6,Y
1588042615.7,286046996.2,P
1588042635.6,286046993.5,P
1588042655.4,286046995.5,N
1588042675.3,286046995.8,Y
1588042695.1,286047000.1,P
1588042696.0,286047000.1,N
1588042715.8,286046998.1,N
1588042735.7,286046999.1,N
1588042755.5,286046998.3,N
1588042775.4,286046998.7,N
1588042795.2,286047000.7,N
